This demonstration page uses our WeatherBlox Daily Observations layout. Learn more.

Left ArrowRight Arrow

40.92501, -98.34201

Hourly Observations for February 12, 2022

Temp ( °F °C ) Dew Point ( °F °C ) Humidity (%) Winds ( mph kmh ) Pressure ( in mb ) Visibility ( mi km ) Precip ( " mm )
12:53 am 00:53 Clear 11 -11.7 2 -16.7 67 67 NNW 7 11 30.55 1035 10 16 0.00 0.00
1:53 am 01:53 Clear 9 -12.8 1 -17.2 70 70 NW 7 11 30.56 1035 10 16 0.00 0.00
2:53 am 02:53 Clear 7 -13.9 0 -17.8 73 73 WNW 7 11 30.58 1036 10 16 0.00 0.00
3:53 am 03:53 Clear 7 -13.9 0 -17.8 73 73 WNW 6 9 30.57 1035 10 16 0.00 0.00
4:53 am 04:53 Clear 6 -14.4 -1 -18.3 73 73 WNW 5 7 30.57 1035 10 16 0.00 0.00
5:53 am 05:53 Cloudy 8 -13.3 1 -17.2 73 73 WNW 5 7 30.57 1035 10 16 0.00 0.00
6:53 am 06:53 Cloudy 11 -11.7 3 -16.1 70 70 WSW 5 7 30.55 1035 10 16 0.00 0.00
7:53 am 07:53 Cloudy 12 -11.1 3 -16.1 67 67 SW 7 11 30.54 1034 10 16 0.00 0.00
8:53 am 08:53 Cloudy 14 -10 3 -16.1 61 61 SW 3 6 30.53 1034 10 16 0.00 0.00
9:53 am 09:53 Partly Cloudy 19 -7.2 5 -15 54 54 S 8 13 30.50 1033 10 16 0.00 0.00
10:53 am 10:53 Sunny 26 -3.3 10 -12.2 51 51 SW 13 20 30.49 1032 10 16 0.00 0.00
11:53 am 11:53 Sunny 35 1.7 15 -9.4 44 44 WSW 15 24 30.45 1031 10 16 0.00 0.00
12:22 pm 12:22 Sunny 38 3.3 15 -9.4 39 39 W 17 28 30.39 1029 10 16 0.00 0.00
12:53 pm 12:53 Mostly Cloudy 39 3.9 15 -9.4 38 38 WNW 14 22 30.39 1029 10 16 0.00 0.00
1:53 pm 13:53 Partly Cloudy 40 4.4 12 -11.1 32 32 W 16 26 30.35 1028 10 16 0.00 0.00
2:53 pm 14:53 Sunny 42 5.6 12 -11.1 29 29 WNW 18 30 30.32 1027 10 16 0.00 0.00
3:53 pm 15:53 Mostly Sunny 43 6.1 11 -11.7 27 27 WNW 20 31 30.31 1026 10 16 0.00 0.00
4:53 pm 16:53 Partly Cloudy 40 4.4 12 -11.1 32 32 W 10 17 30.30 1026 10 16 0.00 0.00
5:53 pm 17:53 Mostly Cloudy 37 2.8 12 -11.1 36 36 WSW 7 11 30.27 1025 10 16 0.00 0.00
6:53 pm 18:53 Cloudy 35 1.7 11 -11.7 37 37 WSW 5 7 30.26 1025 10 16 0.00 0.00
7:53 pm 19:53 Cloudy 34 1.1 10 -12.2 37 37 SW 7 11 30.24 1024 10 16 0.00 0.00
8:53 pm 20:53 Cloudy 32 0 9 -12.8 38 38 Calm 30.24 1024 10 16 0.00 0.00
9:53 pm 21:53 Cloudy 29 -1.7 11 -11.7 47 47 SE 6 9 30.23 1024 10 16 0.00 0.00
10:53 pm 22:53 Partly Cloudy 31 -0.6 9 -12.8 40 40 WSW 12 19 30.21 1023 10 16 0.00 0.00
11:53 pm 23:53 Clear 33 0.6 9 -12.8 36 36 NW 16 26 30.22 1023 10 16 0.00 0.00

Powered by AerisWeather